TimeCDT,TemperatureF,Dew PointF,Humidity,Sea Level PressureIn,VisibilityMPH,Wind Direction,Wind SpeedMPH,Gust SpeedMPH,PrecipitationIn,Events,Conditions,WindDirDegrees,DateUTC
12:14 AM,66.2,64.4,94,30.05,10.0,NE,4.6,-,N/A,,Scattered Clouds,40,2013-06-30 05:14:00
12:35 AM,66.2,64.4,94,30.06,10.0,East,5.8,-,N/A,,Clear,90,2013-06-30 05:35:00
12:55 AM,66.2,64.4,94,30.06,10.0,ESE,3.5,-,N/A,,Clear,110,2013-06-30 05:55:00
1:14 AM,66.2,62.6,88,30.06,10.0,SSE,3.5,-,N/A,,Clear,150,2013-06-30 06:14:00
1:35 AM,66.2,60.8,83,30.07,10.0,Calm,Calm,-,N/A,,Clear,0,2013-06-30 06:35:00
1:55 AM,66.2,62.6,88,30.07,10.0,Calm,Calm,-,N/A,,Clear,0,2013-06-30 06:55:00
2:14 AM,66.2,62.6,88,30.07,10.0,Calm,Calm,-,N/A,,Clear,0,2013-06-30 07:14:00
2:35 AM,64.4,62.6,94,30.08,10.0,Calm,Calm,-,N/A,,Clear,0,2013-06-30 07:35:00
2:55 AM,62.6,62.6,100,30.09,10.0,Calm,Calm,-,N/A,,Clear,0,2013-06-30 07:55:00
3:14 AM,62.6,62.6,100,30.09,10.0,Calm,Calm,-,N/A,,Scattered Clouds,0,2013-06-30 08:14:00
3:35 AM,62.6,62.6,100,30.09,10.0,Calm,Calm,-,N/A,,Scattered Clouds,0,2013-06-30 08:35:00
3:54 AM,60.8,60.8,100,30.10,10.0,NE,3.5,-,N/A,,Clear,40,2013-06-30 08:54:00
4:15 AM,62.6,60.8,94,30.10,10.0,Calm,Calm,-,N/A,,Clear,0,2013-06-30 09:15:00
4:35 AM,62.6,62.6,100,30.10,10.0,Calm,Calm,-,N/A,,Clear,0,2013-06-30 09:35:00
4:55 AM,62.6,62.6,100,30.11,10.0,Calm,Calm,-,N/A,,Clear,0,2013-06-30 09:55:00
5:15 AM,60.8,60.8,100,30.11,10.0,Calm,Calm,-,N/A,,Clear,0,2013-06-30 10:15:00
5:35 AM,60.8,60.8,100,30.12,10.0,Calm,Calm,-,N/A,,Clear,0,2013-06-30 10:35:00
5:55 AM,60.8,60.8,100,30.12,7.0,Calm,Calm,-,N/A,,Clear,0,2013-06-30 10:55:00
6:15 AM,59.0,59.0,100,30.13,7.0,Calm,Calm,-,N/A,,Clear,0,2013-06-30 11:15:00
6:35 AM,59.0,59.0,100,30.14,7.0,Calm,Calm,-,N/A,,Clear,0,2013-06-30 11:35:00
6:55 AM,60.8,60.8,100,30.14,7.0,Calm,Calm,-,N/A,,Clear,0,2013-06-30 11:55:00
7:15 AM,62.6,62.6,100,30.14,7.0,Calm,Calm,-,N/A,,Clear,0,2013-06-30 12:15:00
7:35 AM,64.4,62.6,94,30.15,10.0,Calm,Calm,-,N/A,,Clear,0,2013-06-30 12:35:00
7:54 AM,66.2,62.6,88,30.14,7.0,Calm,Calm,-,N/A,,Clear,0,2013-06-30 12:54:00
8:15 AM,68.0,62.6,83,30.14,7.0,Calm,Calm,-,N/A,,Clear,0,2013-06-30 13:15:00
8:35 AM,68.0,62.6,83,30.14,7.0,Calm,Calm,-,N/A,,Clear,0,2013-06-30 13:35:00
8:54 AM,69.8,64.4,83,30.15,7.0,NE,4.6,-,N/A,,Clear,50,2013-06-30 13:54:00
9:15 AM,69.8,57.2,64,30.15,7.0,Calm,Calm,-,N/A,,Clear,0,2013-06-30 14:15:00
9:35 AM,71.6,57.2,60,30.15,7.0,Calm,Calm,-,N/A,,Clear,0,2013-06-30 14:35:00
9:54 AM,71.6,55.4,57,30.15,7.0,Calm,Calm,-,N/A,,Clear,0,2013-06-30 14:54:00
10:15 AM,73.4,55.4,53,30.15,10.0,Calm,Calm,-,N/A,,Clear,0,2013-06-30 15:15:00
10:35 AM,73.4,55.4,53,30.16,7.0,Calm,Calm,-,N/A,,Clear,0,2013-06-30 15:35:00
10:54 AM,75.2,55.4,50,30.16,7.0,Calm,Calm,-,N/A,,Clear,0,2013-06-30 15:54:00
11:15 AM,75.2,55.4,50,30.16,7.0,NW,3.5,-,N/A,,Clear,310,2013-06-30 16:15:00
11:34 AM,77.0,51.8,41,30.16,10.0,NNE,3.5,-,N/A,,Clear,30,2013-06-30 16:34:00
11:55 AM,78.8,48.2,34,30.16,10.0,NE,3.5,-,N/A,,Clear,40,2013-06-30 16:55:00
12:15 PM,78.8,51.8,39,30.16,10.0,North,6.9,-,N/A,,Clear,360,2013-06-30 17:15:00
12:34 PM,78.8,51.8,39,30.16,10.0,NNE,3.5,-,N/A,,Clear,20,2013-06-30 17:34:00
12:55 PM,78.8,48.2,34,30.16,10.0,NE,3.5,-,N/A,,Clear,40,2013-06-30 17:55:00
1:15 PM,78.8,48.2,34,30.15,10.0,North,5.8,-,N/A,,Clear,10,2013-06-30 18:15:00
1:34 PM,80.6,44.6,28,30.16,10.0,NNE,9.2,-,N/A,,Scattered Clouds,20,2013-06-30 18:34:00
1:55 PM,80.6,46.4,30,30.15,10.0,NNE,9.2,-,N/A,,Scattered Clouds,20,2013-06-30 18:55:00
2:15 PM,80.6,44.6,28,30.15,10.0,NE,4.6,9.2,N/A,,Scattered Clouds,40,2013-06-30 19:15:00
2:34 PM,80.6,44.6,28,30.15,10.0,NNE,9.2,-,N/A,,Scattered Clouds,20,2013-06-30 19:34:00
2:55 PM,80.6,42.8,26,30.15,10.0,NE,8.1,-,N/A,,Scattered Clouds,40,2013-06-30 19:55:00
3:15 PM,80.6,42.8,26,30.15,10.0,NNE,8.1,-,N/A,,Clear,20,2013-06-30 20:15:00
3:35 PM,80.6,42.8,26,30.14,10.0,ENE,8.1,-,N/A,,Scattered Clouds,60,2013-06-30 20:35:00
3:55 PM,82.4,42.8,25,30.14,10.0,ENE,8.1,-,N/A,,Scattered Clouds,70,2013-06-30 20:55:00
4:14 PM,82.4,42.8,25,30.14,10.0,North,5.8,-,N/A,,Scattered Clouds,10,2013-06-30 21:14:00
4:35 PM,82.4,39.2,21,30.14,10.0,ENE,4.6,-,N/A,,Scattered Clouds,70,2013-06-30 21:35:00
4:55 PM,80.6,44.6,28,30.14,10.0,NNE,6.9,-,N/A,,Clear,30,2013-06-30 21:55:00
5:14 PM,82.4,42.8,25,30.14,10.0,North,9.2,-,N/A,,Clear,10,2013-06-30 22:14:00
5:35 PM,82.4,44.6,26,30.14,10.0,NNE,5.8,-,N/A,,Clear,30,2013-06-30 22:35:00
5:55 PM,82.4,42.8,25,30.14,10.0,NE,5.8,-,N/A,,Clear,50,2013-06-30 22:55:00
6:14 PM,80.6,44.6,28,30.14,10.0,Calm,Calm,-,N/A,,Clear,0,2013-06-30 23:14:00
6:35 PM,80.6,48.2,32,30.14,10.0,NE,5.8,-,N/A,,Clear,40,2013-06-30 23:35:00
6:55 PM,80.6,48.2,32,30.14,10.0,NNE,4.6,-,N/A,,Clear,30,2013-06-30 23:55:00
7:14 PM,80.6,50.0,34,30.14,10.0,North,8.1,-,N/A,,Clear,10,2013-07-01 00:14:00
7:35 PM,80.6,48.2,32,30.14,10.0,NNE,5.8,-,N/A,,Clear,30,2013-07-01 00:35:00
7:55 PM,80.6,55.4,42,30.14,10.0,NNE,4.6,-,N/A,,Clear,20,2013-07-01 00:55:00
8:14 PM,78.8,55.4,44,30.14,10.0,North,5.8,-,N/A,,Scattered Clouds,10,2013-07-01 01:14:00
8:35 PM,77.0,57.2,50,30.14,10.0,NNE,4.6,-,N/A,,Clear,20,2013-07-01 01:35:00
8:55 PM,75.2,57.2,53,30.14,10.0,North,4.6,-,N/A,,Clear,10,2013-07-01 01:55:00
9:15 PM,73.4,60.8,65,30.14,10.0,North,3.5,-,N/A,,Clear,360,2013-07-01 02:15:00
9:35 PM,73.4,60.8,65,30.15,10.0,Calm,Calm,-,N/A,,Clear,0,2013-07-01 02:35:00
9:54 PM,73.4,60.8,65,30.15,10.0,North,3.5,-,N/A,,Clear,10,2013-07-01 02:54:00
10:15 PM,71.6,60.8,69,30.16,10.0,Calm,Calm,-,N/A,,Clear,0,2013-07-01 03:15:00
10:35 PM,71.6,60.8,69,30.16,10.0,Calm,Calm,-,N/A,,Clear,0,2013-07-01 03:35:00
10:54 PM,71.6,60.8,69,30.17,10.0,Calm,Calm,-,N/A,,Clear,0,2013-07-01 03:54:00
11:15 PM,71.6,60.8,69,30.17,10.0,Calm,Calm,-,N/A,,Clear,0,2013-07-01 04:15:00
11:35 PM,69.8,60.8,73,30.17,10.0,Calm,Calm,-,N/A,,Clear,0,2013-07-01 04:35:00
11:54 PM,69.8,59.0,68,30.17,10.0,Calm,Calm,-,N/A,,Clear,0,2013-07-01 04:54:00